Location: Burbank
(38.7788°N, 114.0429°W)
Time: 02:31:54
(UTC+00:00)

Tiros 1 despin weight - Pass Details

Date: 17 May 2026
Orbit: 554 x 591 km, 48.2° (Epoch: 6 June)

Event Time Altitude Azimuth Distance (km) Brightness Sun altitude
Rises 12:01:09 0° 245° (WSW) 2,761 - -4.5°
Exits shadow 12:02:23 - 246° (WSW) 2,274 ? -4.2°
Reaches altitude 10° 12:03:26 10° 248° (WSW) 1,860 ? -4.1°
Maximum altitude 12:07:39 65° 330° (NNW) 619 ? -3.3°
Drops below altitude 10° 12:11:51 10° 53° (NE) 1,846 ? -2.6°
Sets 12:14:07 0° 57° (ENE) 2,739 ? -2.2°
